Вернуться в каталог

STARLINK-32389

АктивенСвязьVLEO
NORAD 61549·PAYLOAD·🇺🇸 United States

Запущен Oct 15, 2024 с Vandenberg Space Force Base

Loading…

Ближайшие Пролёты (ближайшие 24 часа)

TLE

СвежийSource: CelesTrak SupGP

Эпоха: Sep 15, 2026, 03:10 UTC

1 61549C 24184T   26258.13243056 -.00124270  00000+0 -36707-2 0  2581
2 61549  53.1591 212.5182 0001361  85.6472 232.2644 15.34459402    16

Отслеживайте STARLINK-32389 в реальном времени с AllMySat

Download on the App Store